Regional Weather Roundup
Issued by NWS Upton, NY

Current Version | Previous Version | Text Only | Print | Product List | Glossary On
Versions: 1 2 3 4 5 6 7 8 9 10 11 12 13 14 15 16 17 18 19 20 21 22 23 24 25 26 27
000
ASUS41 KOKX 251109
RWROKX

REGIONAL WEATHER ROUNDUP
NATIONAL WEATHER SERVICE NEW YORK NY
700 AM EDT THU MAY 25 2017

NOTE: "FAIR" INDICATES FEW OR NO CLOUDS BELOW 12,000 FEET WITH NO
SIGNIFICANT WEATHER AND/OR OBSTRUCTIONS TO VISIBILITY.

NYZ071-072-176-178-NJZ106-104-251200-
NEW YORK CITY METRO AREA

CITY           SKY/WX    TMP DP  RH WIND       PRES   REMARKS
Central Park   LGT RAIN  56  55  97 E10G17    29.73F FOG
Wall St Helipt CLOUDY    57  55  94 NE13      29.72R
Bronx Bot Gard   N/A     54  52  94 NE6       29.72S
LaGuardia APRT LGT RAIN  57  54  89 NE14      29.71F
Kennedy INTL   LGT RAIN  56  56 100 E14       29.72S
Breezy Point     N/A     54 N/A N/A E18G26      N/A
Newark/Liberty LGT RAIN  57  55  93 NE10      29.70S
Teterboro      LGT RAIN  56  54  93 E9        29.70F
$$

NYZ177-179-078>081-251200-
LONG ISLAND NEW YORK

CITY           SKY/WX    TMP DP  RH WIND       PRES   REMARKS
Jones Beach      N/A     54 N/A N/A E20         N/A
Matinecock PT  NOT AVBL
Farmingdale    LGT RAIN  55  54  96 E13       29.72F
MacArthur/ISP  LGT RAIN  55  54  96 E13G22    29.72F
Shirley        LGT RAIN  55  55 100 VRB6      29.74F
Mt Sinai Harb    N/A     55 N/A N/A E10G20      N/A
Westhampton    LGT RAIN  54  52  93 E14G21    29.76F
East Hampton   LGT RAIN  54  52  95 E15G24    29.77S
Montauk          N/A     55  54  96 E8G16     29.79F
$$

NYZ052-065-067-251200-
HUDSON VALLEY

CITY           SKY/WX    TMP DP  RH WIND       PRES   REMARKS
White Plains   LGT RAIN  54  52  93 E13G22    29.72F
Larchmont Harb   N/A     55 N/A N/A NE30        N/A
Croton O-T Hud   N/A     55 N/A N/A CALM        N/A
Newburgh       LGT RAIN  55  54  94 E9        29.76F
Montgomery     LGT RAIN  55  52  89 NE9       29.74F
Poughkeepsie   LGT RAIN  56  51  84 NE5       29.75F
Albany         CLOUDY    59  46  62 VRB3      29.79F
$$

NJZ001-105-106-008-010-013-015-019>022-104-251200-
NEW JERSEY

CITY           SKY/WX    TMP DP  RH WIND       PRES   REMARKS
Newark/Liberty LGT RAIN  57  55  93 NE10      29.70S
Teterboro      LGT RAIN  56  54  93 E9        29.70F
Caldwell       LGT RAIN  57  54  89 E10       29.71F
Somerville     RAIN      57  54  89 E7        29.65F FOG
Linden         DRIZZLE   57  54  91 E14       29.70
Perth Amboy      N/A     55 N/A N/A E17G25      N/A
Sussex         LGT RAIN  55  53  93 NE12      29.71F
Andover          N/A     55  52  89 VRB3      29.68F
Trenton        LGT RAIN  55  54  96 E13G22    29.64F
Millville      LGT RAIN  55  55 100 E13       29.59F FOG
Atlantic City  LGT RAIN  56  54  93 E16       29.61F FOG
Wrightstown    LGT RAIN  54  52  94 E14G22    29.62F
Toms River     LGT RAIN  54  53  97 E9G18     29.66F FOG
Belmar         LGT RAIN  53  52  96 E16G23    29.68F FOG
$$

PAZ047>061-062-071-251200-
EASTERN PENNSYLVANIA

CITY           SKY/WX    TMP DP  RH WIND       PRES   REMARKS
Philadelphia   RAIN      56  54  93 E15       29.62F FOG
Allentown      LGT RAIN  57  53  86 E14       29.65S
Scranton       CLOUDY    56  52  86 E8G18     29.63F
$$

CTZ002-004>006-009-010-012-RIZ004-006-007-MAZ004-011-015-251200-
SOUTHERN NEW ENGLAND
 IN CT

CITY           SKY/WX    TMP DP  RH WIND       PRES   REMARKS
Bradley INTL   LGT RAIN  55  49  80 N9        29.82S
Hartford       LGT RAIN  57  50  77 NE6       29.80F
Danbury        LGT RAIN  53  52  96 NE10      29.77F
Wtrbury/Oxford DRIZZLE   54  46  76 E7        29.78F FOG
Bridgeport     LGT RAIN  58  53  84 E16G25    29.75F
Meriden        LGT RAIN  55  51  86 NE5       29.78F
New Haven      LGT RAIN  55  52  89 NE8       29.76F
Chester        LGT RAIN  54  54 100 NE8       29.78F
Groton         LGT RAIN  56  53  90 NE12      29.79R FOG
Wilimantic     LGT RAIN  57  52  83 NE8       29.82F

 IN RI

CITY           SKY/WX    TMP DP  RH WIND       PRES   REMARKS
Providence     CLOUDY    54  52  93 NE12      29.83F
Block Island   LGT RAIN  54  53  97 E18G26    29.80R
Westerly       LGT RAIN  57  54  89 NE8       29.80S
 IN MA

CITY           SKY/WX    TMP DP  RH WIND       PRES   REMARKS
Boston         CLOUDY    54  51  90 NE13      29.88R
Worcester      CLOUDY    51  46  83 NE12G18   29.86R
Westfield      CLOUDY    54  51  90 N6        29.83S
Provincetown   CLOUDY    54  50  86 E14G20    29.87R
Nantucket      CLOUDY    52  50  93 E18G24    29.80F FOG
$$

ANZ330-335-338-340-345-350-353-355-251200-
COASTAL MARINE OBSERVATIONS


STATION/POSITION TIME  SKY/WX   TEMP    WIND        PRES    VSBY  WAVE
                                AIR SEA DIR/SP/G                  HT/PER
                 (UTC)          (F)     (DEG/KT/KT) (MB)    (MI)  (FT/S)
NY HARB ENTRANCE 0950            55 56   80/ 21/ 23 1005.1          6/ 7
20 S FIRE ISLAND 1050            53 55   90/ 17/ 21 1005.1          6/ 7
GREAT SOUTH BAY  1015            56 63   80/ 21/ 27   N/A
23 SSW MONTAUK P 0950            53 54              1007.5          5/ 8
15 E BARNEGAT LI 1030               56                N/A           6/ 8
HUDSON CANYON    0950            54 52  100/ 14/ 16 1005.1          5/ 7
KINGS POINT      1042            56 57   70/  3/  7 1005.9
EXECUTION ROCKS  1045            57                   N/A
CENTRAL LI SOUND 1030            56      90/ 19/ 23   N/A           2/ 4
EASTERN LI SOUND NOT AVBL
ROBBINS REEF     1042            57      80/ 10/ 12 1006.4
$$


>>>>>>>>>>>>>>>>>>>>>>>>>>>> KEY <<<<<<<<<<<<<<<<<<<<<<<<<<<
>                                                          <
>     SKY/WX - Sky Condition/Present Weather               <
>     TMP    - Temperature in Fahrenheit                   <
>     DP     - Dew Point in Fahrenheit                     <
>     RH     - Relative Humidity in Percent                <
>     WIND   - Direction (from) and Speed in MPH           <
>     PRES   - Mean Sea Level Pressure (inches of Hg)      <
>     WCI    - Wind Chill Index                            <
>     VSB    - VISIBILITY IN MILES                         <
>     HX     - HEAT INDEX                                  <
>     TC     - TEMPERATURE IN CELSIUS                      <
>     VRB    - VARIABLE WIND DIRECTION                     <
>                                                          <
>>>>>>>>>>>>>>>>>>>>>>>>>>>> KEY <<<<<<<<<<<<<<<<<<<<<<<<<<<




USA.gov is the U.S. government's official web portal to all federal, state and local government web resources and services.